Погода в Провиденсе

США     41°49′24″N   71°24′50″W
темп.,
°C
ветер,
м/с
пор.,
м/с
влажн.,
%
обл.,
%
осадки,
мм/ч
давл.,
гПа
погр.,
м
16 октября, сб
сб1623:00+18ю299371 0.0 1012350
02:00+17ююз3109590 0.1 1012481
05:00+17ю3119721 0.0 1011442
08:00+19ю4119251 0.1 1011607
11:00+23ююз61062100 0.0 10091040
14:00+24ююз7126223 0.0 10061239
17:00+22ю6138050 0.1 10051176
20:00+20ю513855 0.3 10051037
17 октября, вс
вс1723:00+19зюз4891100 1.2 1003563
02:00+14зсз2792100 3.9 1004476
05:00+13зсз411871 3.8 1005615
08:00+11зсз411850 3.8 1006570
11:00+16сз47510 0.0 10061128
14:00+18зсз464280 0.0 10052165
17:00+15зсз475797 0.1 10061114
20:00+12зсз4107113 0.1 1007671
18 октября, пн
пн1823:00+10з4117048 0.0 1008751
02:00+9з512705 0.0 1007690
05:00+8зсз512735 0.0 1008587
08:00+7зсз411720 0.0 1009544
11:00+12сз58430 0.0 10091296
14:00+15сз593643 0.0 10072067
17:00+13зсз594897 0.0 10091621
20:00+9зсз49655 0.0 1010881
19 октября, вт
вт1923:00+7зсз4116739 0.0 1012634
02:00+6зсз411665 0.0 1013627
05:00+5зсз411695 0.0 1014709
08:00+5зсз412685 0.0 1014795
11:00+10зсз510440 0.0 10141151
14:00+15зсз612354 0.0 10111547
17:00+15з515500 0.0 10101710
20:00+13з413620 0.0 10111011
20 октября, ср
ср2023:00+12з4147289 0.0 1011703
02:00+12з413761 0.0 1011693
05:00+12з412848 0.0 1012547
08:00+12з3118475 0.0 1014545
11:00+18зсз595710 0.0 10141316
14:00+20зсз59517 0.0 10141510
17:00+19зсз38580 0.0 10141138
20:00+15з26760 0.0 1016148